Tracking 33485 objects as of 15-Mar-2026
HD Live streaming from Space Station
objects crossing your sky now

KUIPER-00140

Track KUIPER-00140 now!
10-day predictions
KUIPER-00140 is classified as:


NORAD ID: 65965
Int'l Code: 2025-228U
Perigee: 636.1 km
Apogee: 637.4 km
Inclination: 51.9 °
Period: 97.3 minutes
Semi major axis: 7007 km
RCS: Unknown
Launch date: October 14, 2025
Source: United States (US)
Launch site: AIR FORCE EASTERN TEST RANGE (AFETR)
Your satellite tracking list
Your tracking list is empty




NASA's NSSDC Master Catalog

Two Line Element Set (TLE):
1 65965U 25228U   26073.94513346  .00004959  00000-0  67939-3 0  9997
2 65965  51.8992 322.4367 0000970 101.9100 258.1972 14.79913237 24211
Source of the keplerian elements: AFSPC